Location: *
(43.9900°N, 3.4811°E)
Time: 01:24:36
(UTC+00:00)

EO 1 Del DPAF - Pass Details

Date: 25 August 2019
Orbit: 516 x 522 km, 98.0° (Epoch: 19 September)

Event Time Altitude Azimuth Distance (km) Brightness Sun altitude
Rises 20:55:17 0° 16° (NNE) 2,650 7.2 -22.8°
Reaches altitude 10° 20:57:25 10° 21° (NNE) 1,756 6.1 -23.1°
Enters shadow 20:59:37 32° 34° (NE) 913 4.4 -23.3°
